国际通讯卫星-513星 (NSS-513 (INTELSAT 513))

导读 | 豆包AI

NSS 513(INTELSAT 513)是国际通信卫星组织旗下的商用通信卫星,由Space Systems Loral制造,1988年5月17日发射。卫星定点于东经265度同步轨道,设计寿命15年,搭载多频段转发器,为北美、南美及太平洋区域提供C、Ku波段广播电视、企业与政府通信服务,至今已在轨运行超38年,是全球早期商用卫星通信网络的重要组成部分。

基本信息
目录编号:
19121
目录名称:
NSS 513 (INTELSAT 513)
国际标识:
1988-040A
轨道中心:
EARTH
卫星名称:
国际通讯卫星-513星
卫星全名:
国际通讯卫星-513星 (NSS-513 (INTELSAT 513))
卫星状态:
在轨 (已飞行13836 天)
发射日期:
1988-05-17 UTC
国别 :
荷兰 (NL)
星等 :
--
轨道信息
数据来源 国际轨道数据 AOE轨道数据
星历时间 2026-04-03T16:44:02+0800
17小时前
查看轨道信息
2026-03-29T13:00:00+0800
5天前
查看轨道信息
半长轴 42648.021km 42648.511km
偏心率 0.0010543 0.0009926
轨道倾角 14.703° 14.704°
近地点辐角 99.104° 98.833°
升交点赤经 349.362° 349.400°
平近点角 93.448° 64.175°
近地点 36224.92km 36228.041km
远地点 36314.848km 36312.707km
周期 1460.858分钟 1460.883分钟
每日圈数 0.985722 0.985705
详细信息
卫星平台:
Intelsat V
平衡模式:
三轴稳定
覆盖范围:
全球
运营商:
国际卫星通信公司
运营商所在国:
美国
制造商(研发单位):
福特工程公司
制造商所在国:
美国
使用方式:
暂无
卫星简介
从1965年4月至1984年3月,国际通信卫星组织发射了5代、6种不同性能的卫星共计35颗,除6颗卫星因运载火箭和远地点发动机故障而发射失败外,其余29颗卫星均被送到了预定的静止轨道位置。1984年8月前后,国际通信卫星组织利用部署在大西洋、太平洋、印度洋上空的15颗国际通信卫星,为遍布世界各地170多个国家或地区提供电话、电传、电报、电视和数据传输等电信业务;该卫星已退役。
2D轨道图
3D轨道图
轨道高度分析图
轨道倾角分析图
轨道综合分析图
查看轨道综合分析图